Terug naar catalogus

STARLINK-37257

ActiefCommunicatieVLEO
NORAD 68970·PAYLOAD·🇺🇸 United States

Gelanceerd May 1, 2026 vanaf Cape Canaveral Space Force Station

Loading…

Volgende Passages (komende 24 uur)

TLE

VersSource: CelesTrak SupGP

Epoch: Sep 14, 2026, 21:00 UTC

1 68970C 26099V   26257.87548611 -.00052881  00000+0 -15626-2 0  2572
2 68970  53.1564 101.9097 0001311  86.1293 261.8368 15.34411648    10

Volg STARLINK-37257 in realtime met AllMySat

Download on the App Store